Regional Weather Roundup
Issued by NWS

Home | Current Version | Previous Version | Text Only | Print | Product List | Glossary On
Versions: 1 2 3 4 5 6 7 8 9 10 11 12 13 14 15 16 17 18 19 20 21 22 23 24 25 26 27 28 29 30 31 32 33 34 35 36 37 38 39 40 41 42 43 44 45 46 47 48 49 50
000
ASUS45 KBOU 261607
RWRCO

WEATHER ROUNDUP FOR COLORADO
NATIONAL WEATHER SERVICE DENVER/BOULDER CO
900 AM MST MON JAN 26 2015

NOTE: "FAIR" INDICATES FEW OR NO CLOUDS BELOW 12000 FEET WITH NO
SIGNIFICANT WEATHER AND/OR OBSTRUCTIONS TO VISIBILITY.

COZ001>005-013-030-031-261700-
...NORTHWEST COLORADO...

CITY           SKY/WX    TMP DP  RH WIND       PRES   REMARKS
CRAIG          MOSUNNY   16  13  88 CALM      30.49R
HAYDEN         MOSUNNY   25  18  74 E13       30.47S WCI  13
MEEKER         SUNNY     20  18  92 CALM      30.47S
MOUNT WERNER   NOT AVBL
STEAMBOAT SPGS MOSUNNY   17  15  91 CALM      30.50S
WALDEN         SUNNY     21  16  79 SE3       30.50R
$$

COZ006>008-011-261700-
...WEST CENTRAL VALLEYS...

CITY           SKY/WX    TMP DP  RH WIND       PRES   REMARKS
GRAND JUNCTION SUNNY     34  25  69 SE13      30.43S WCI  25
MONTROSE       SUNNY     30  23  75 CALM      30.48S
EAGLE          SUNNY     25  25 100 CALM      30.58R
RIFLE          SUNNY     29  22  75 NE3       30.48S
DELTA          SUNNY     31  23  74 CALM      30.49R
NUCLA          SUNNY     32  23  69 CALM      30.46S
$$

COZ017>023-064>068-261700-
...SOUTHWEST COLORADO...

CITY           SKY/WX    TMP DP  RH WIND       PRES   REMARKS
DURANGO        SUNNY     30  23  75 CALM      30.39F
CORTEZ         SUNNY     33  24  69 CALM      30.39F
PAGOSA SPRINGS SUNNY     31  18  58 CALM      30.43S
TELLURIDE      SUNNY     36  15  41 E6        30.49R
WOLF CREEK PAS NOT AVBL
$$

COZ009-010-012-014-032>034-037-058>063-261700-
...CENTRAL COLORADO...

CITY           SKY/WX    TMP DP  RH WIND       PRES   REMARKS
ASPEN          SUNNY     24  18  77 CALM      30.49R
BUENA VISTA    SUNNY     36  20  51 NW3       30.45S
COPPER MTN     MOSUNNY   36  14  41 NW3       30.60R
BERTHOUD PASS  FAIR      27  19  74 NW14      30.61R WCI  15
COTTONWOOD PAS SUNNY     46   3  17 W5        30.49R
GUNNISON       MOSUNNY    0 -17  46 E3        30.59R
KREMMLING      SNOW     N/A N/A N/A CALM      30.59S VSB 1/4
LEADVILLE      MOSUNNY   29  13  51 CALM      30.52R
MONARCH PASS   SUNNY     37   9  30 E10       30.67R
SALIDA         SUNNY     35  21  57 CALM      30.54R
SUNLIGHT       SUNNY     36  23  60 CALM      30.57
WILKERSON PASS SUNNY     39   9  28 NE13G23   30.56R
$$

COZ069>075-261700-
...SAN LUIS VALLEY/SANGRE DE CRISTO MOUNTAINS...

CITY           SKY/WX    TMP DP  RH WIND       PRES   REMARKS
ALAMOSA        MOSUNNY   23  14  68 CALM      30.47R
LA VETA PASS   NOT AVBL
SAGUACHE       NOT AVBL
$$

COZ035-036-038>040-261700-
...NORTHERN COLORADO FRONT RANGE...

CITY           SKY/WX    TMP DP  RH WIND       PRES   REMARKS
DENVER INTL AP MOSUNNY   49  25  39 SW10      30.26R
DMNS CITY PARK   N/A     48  22  35 S9        30.27S
AURORA         MOSUNNY   47  24  39 S10       30.28S
FRONT RANGE AP NOT AVBL
ERIE MUNI ARPT SUNNY     47  28  46 CALM      30.25F
BOULDER MUN AP SUNNY     54  27  35 CALM      30.25S
CENTENNIAL     MOSUNNY   49  27  42 S5        30.29R
BROOMFIELD     MOSUNNY   54  28  37 SW5       30.27S
FORT COLLINS   SUNNY     46  28  49 CALM      30.25S
LONGMONT       SUNNY     49  32  50 CALM      30.25F
$$

COZ041-046-047-076>085-087-088-261700-
...PIKES PEAK/PALMER DIVIDE AND SOUTHERN FOOTHILLS...

CITY           SKY/WX    TMP DP  RH WIND       PRES   REMARKS
COLO. SPRINGS  MOSUNNY   51  27  39 N5        30.33R
A. F. ACADEMY  SUNNY     38  27  62 N9        30.33R
ELLICOTT       SUNNY    N/A N/A N/A CALM      30.30S
FALCON         SUNNY     51  22  32 W3        30.36R
FORT CARSON    SUNNY     43  27  53 NW10      30.30R
LIMON          SUNNY     47  28  47 NW9       30.27R
MONUMENT HILL  SUNNY     45  23  42 SW7       30.33R
TRINIDAD       SUNNY     43  25  49 W15       30.33R
$$

COZ042>045-048>051-090-091-261700-
...NORTHEAST COLORADO...

CITY           SKY/WX    TMP DP  RH WIND       PRES   REMARKS
GREELEY ARPT   SUNNY     39  27  60 CALM      30.24S
AKRON          MOSUNNY   44  28  53 W16       30.22R
BURLINGTON     SUNNY     48  30  49 W14       30.20R
WRAY           SUNNY     53  30  42 W15       30.17S
STERLING       MOSUNNY   43  34  70 S5        30.19S
HOLYOKE        SUNNY     52  32  46 NW13G18   30.16S
FORT MORGAN    MOSUNNY   41  29  62 W10       30.24R
$$

COZ086-089-092>099-261700-
...SOUTHEAST COLORADO...

CITY           SKY/WX    TMP DP  RH WIND       PRES   REMARKS
PUEBLO         SUNNY     37  30  75 SW6       30.29R
LA JUNTA       SUNNY     43  29  57 W9        30.27R
LAMAR          SUNNY     42  30  62 W13       30.24R
SPRINGFIELD      N/A     54  29  38 NW14      30.24R
$$



USA.gov is the U.S. government's official web portal to all federal, state and local government web resources and services.